Welcome to Northern Hawkes Bay. New Zealand.
PWS Header
      nz Flag



Hit Counter


W3C Valid W3C Valid logo


    Wairoa

Select any of the Stations below to visit their websites.










Historic Data from Weather Underground
Select the location of interest below. Wairoa is the default. Please have patience, this Data is slow to load in.
Northern Hawkes Bay Historical Data
Daily Summary for December 1, 2017 Units:  English    Metric   Both
« Previous Day
Next Day »
Daily Weekly Monthly Yearly Custom
  High: Low: Average:
Temperature: 81 °F 55.6 °F 68.5 °F
Dew Point: 61.9 °F 55.2 °F 58.3 °F
Humidity: 99% 51% 72%
Wind Speed: 8.3mph 0mph 2.3mph
Wind Gust: 14.5mph - -
Wind- - South
Pressure: 30.4 in 30.1 in -
Precipitation: 0 in    
Historical Graphs
 
 
Tabular Data for December 1, 2017
Time Temperature Dew Point Pressure Wind Wind Speed Wind Gust Humidity Rainfall Rate (Hourly) solar
00:03 76.1 °F 59.4 °F 30.3 in ESE 5.4 mph 11.4 mph 56% 0 in 266 W/m2
00:08 75.6 °F 59.4 °F 30.3 in ESE 5.4 mph 11.4 mph 57% 0 in 256 W/m2
00:24 76.8 °F 60.4 °F 30.3 in ESE 4.5 mph 9.8 mph 57% 0 in 219 W/m2
00:29 76.1 °F 59.4 °F 30.3 in East 4.5 mph 9.2 mph 56% 0 in 208 W/m2
00:35 76.6 °F 59.7 °F 30.3 in ESE 3.8 mph 9.2 mph 56% 0 in 197 W/m2
00:40 76.1 °F 59.4 °F 30.3 in ESE 6 mph 9.8 mph 56% 0 in 187 W/m2
00:45 75.7 °F 59 °F 30.3 in East 6 mph 9.8 mph 56% 0 in 176 W/m2
00:50 76.1 °F 59.4 °F 30.3 in East 4.5 mph 9.2 mph 56% 0 in 167 W/m2
00:55 75.9 °F 58.6 °F 30.3 in East 5.4 mph 9.8 mph 55% 0 in 157 W/m2
01:00 75.7 °F 57.9 °F 30.3 in ENE 5.4 mph 9.8 mph 54% 0 in 149 W/m2
01:10 75.9 °F 58.1 °F 30.3 in NE 5.4 mph 13.6 mph 54% 0 in 129 W/m2
01:20 74.7 °F 57.9 °F 30.3 in NE 6.9 mph 11.4 mph 56% 0 in 109 W/m2
01:25 74.3 °F 58.1 °F 30.3 in NE 5.4 mph 11.4 mph 57% 0 in 98 W/m2
01:30 73.9 °F 57.7 °F 30.3 in NE 5.4 mph 10.7 mph 57% 0 in 88 W/m2
01:35 73.8 °F 57.6 °F 30.3 in ENE 3.1 mph 8.3 mph 57% 0 in 77 W/m2
01:40 73.4 °F 57.4 °F 30.3 in ENE 3.1 mph 8.3 mph 57% 0 in 67 W/m2
01:50 72.1 °F 57.6 °F 30.3 in NE 3.8 mph 8.3 mph 60% 0 in 42 W/m2
01:55 71.6 °F 57 °F 30.3 in NE 1.6 mph 8.3 mph 60% 0 in 21 W/m2
02:00 70.5 °F 57.4 °F 30.3 in NNE 4.5 mph 8.3 mph 63% 0 in 10 W/m2
02:05 69.3 °F 57 °F 30.3 in NNE 3.1 mph 8.3 mph 65% 0 in 6 W/m2
02:10 68.7 °F 56.8 °F 30.3 in NE 0.7 mph 8.3 mph 66% 0 in 4 W/m2
02:20 67.8 °F 57.4 °F 30.3 in NNE 1.6 mph 4.5 mph 69% 0 in 0 W/m2
02:25 67.5 °F 57.4 °F 30.3 in Calm   4.5 mph 70% 0 in 0 W/m2
02:30 67.1 °F 57.4 °F 30.3 in NE 0.7 mph 4.5 mph 71% 0 in 0 W/m2
02:35 66.9 °F 57.2 °F 30.3 in Calm   4.5 mph 71% 0 in 0 W/m2
02:40 66.7 °F 57 °F 30.3 in NE 0.7 mph 5.4 mph 71% 0 in 0 W/m2
02:45 66.4 °F 56.7 °F 30.3 in Calm   5.4 mph 71% 0 in 0 W/m2
02:55 65.7 °F 57.2 °F 30.3 in Calm   3.1 mph 74% 0 in 0 W/m2
03:00 65.3 °F 56.8 °F 30.3 in Calm   3.1 mph 74% 0 in 0 W/m2
03:05 64.9 °F 56.8 °F 30.3 in Calm   0.7 mph 75% 0 in 0 W/m2
03:10 64.6 °F 56.5 °F 30.3 in Calm   0.7 mph 75% 0 in 0 W/m2
03:15 64.4 °F 56.3 °F 30.3 in Calm   0.7 mph 75% 0 in 0 W/m2
03:20 64.4 °F 56.7 °F 30.3 in Calm   2.2 mph 76% 0 in 0 W/m2
03:25 64 °F 55.9 °F 30.3 in Calm   2.2 mph 75% 0 in 0 W/m2
03:30 64 °F 56.3 °F 30.3 in Calm   0.7 mph 76% 0 in 0 W/m2
03:36 63.9 °F 56.5 °F 30.3 in North 0.7 mph 3.8 mph 77% 0 in 0 W/m2
03:41 63.9 °F 56.5 °F 30.4 in North 0.7 mph 3.8 mph 77% 0 in 0 W/m2
03:46 63.7 °F 56.7 °F 30.3 in Calm   3.1 mph 78% 0 in 0 W/m2
03:52 63.5 °F 56.5 °F 30.4 in Calm   2.2 mph 78% 0 in 0 W/m2
03:57 63.5 °F 56.5 °F 30.3 in Calm   0.7 mph 78% 0 in 0 W/m2
04:02 63.1 °F 56.1 °F 30.3 in Calm   1.6 mph 78% 0 in 0 W/m2
04:13 63 °F 56.7 °F 30.4 in Calm   2.2 mph 80% 0 in 0 W/m2
04:18 63.1 °F 56.8 °F 30.4 in Calm   2.2 mph 80% 0 in 0 W/m2
04:23 62.8 °F 56.5 °F 30.4 in Calm   1.6 mph 80% 0 in 0 W/m2
04:28 62.6 °F 56.7 °F 30.4 in Calm   1.6 mph 81% 0 in 0 W/m2
04:32 62.6 °F 56.7 °F 30.4 in Calm   0.7 mph 81% 0 in 0 W/m2
04:37 62.6 °F 56.7 °F 30.4 in Calm   0.7 mph 81% 0 in 0 W/m2
04:42 62.2 °F 56.7 °F 30.4 in Calm     82% 0 in 0 W/m2
04:52 62.1 °F 56.5 °F 30.4 in Calm   0.7 mph 82% 0 in 0 W/m2
04:57 61.9 °F 56.7 °F 30.4 in Calm   0.7 mph 83% 0 in 0 W/m2
05:02 61.7 °F 56.5 °F 30.4 in Calm     83% 0 in 0 W/m2
05:12 61.5 °F 56.7 °F 30.4 in Calm     84% 0 in 0 W/m2
05:17 61.5 °F 56.7 °F 30.4 in Calm     84% 0 in 0 W/m2
05:22 61.3 °F 56.5 °F 30.3 in Calm     84% 0 in 0 W/m2
05:32 61.7 °F 57.2 °F 30.3 in North 0.7 mph 3.8 mph 85% 0 in 0 W/m2
05:37 61.7 °F 56.8 °F 30.4 in Calm   3.1 mph 84% 0 in 0 W/m2
05:42 61.9 °F 57 °F 30.4 in Calm   3.1 mph 84% 0 in 0 W/m2
05:52 62.1 °F 57.2 °F 30.3 in Calm   3.1 mph 84% 0 in 0 W/m2
05:57 62.1 °F 57.2 °F 30.3 in North 1.6 mph 4.5 mph 84% 0 in 0 W/m2
06:02 62.1 °F 57.2 °F 30.3 in Calm   4.5 mph 84% 0 in 0 W/m2
06:07 62.1 °F 57.2 °F 30.4 in North 1.6 mph 4.5 mph 84% 0 in 0 W/m2
06:12 62.1 °F 57.2 °F 30.3 in North 1.6 mph 3.1 mph 84% 0 in 0 W/m2
06:22 61.7 °F 56.8 °F 30.3 in Calm   3.1 mph 84% 0 in 0 W/m2
06:27 61.5 °F 57 °F 30.3 in Calm   2.2 mph 85% 0 in 0 W/m2
06:32 61.3 °F 56.8 °F 30.3 in Calm   2.2 mph 85% 0 in 0 W/m2
06:37 61.2 °F 56.7 °F 30.3 in Calm   2.2 mph 85% 0 in 0 W/m2
06:47 61 °F 56.5 °F 30.3 in Calm     85% 0 in 0 W/m2
06:52 60.8 °F 56.7 °F 30.3 in Calm   0.7 mph 86% 0 in 0 W/m2
06:57 60.6 °F 56.7 °F 30.3 in Calm   0.7 mph 87% 0 in 0 W/m2
07:02 60.4 °F 56.7 °F 30.3 in Calm   0.7 mph 87% 0 in 0 W/m2
07:12 60.1 °F 56.8 °F 30.3 in NNW 0.7 mph 3.1 mph 89% 0 in 0 W/m2
07:17 59.9 °F 56.7 °F 30.3 in NNW 1.6 mph 3.1 mph 89% 0 in 0 W/m2
07:27 59.9 °F 57 °F 30.3 in NW 1.6 mph 4.5 mph 90% 0 in 0 W/m2
07:32 59.7 °F 56.8 °F 30.3 in NNW 3.8 mph 5.4 mph 90% 0 in 0 W/m2
07:37 59.7 °F 56.8 °F 30.3 in NNW 3.8 mph 6.9 mph 90% 0 in 0 W/m2
07:42 59.7 °F 57 °F 30.3 in North 3.8 mph 6.9 mph 91% 0 in 0 W/m2
07:57 59.5 °F 56.8 °F 30.3 in NNW 3.8 mph 6.9 mph 91% 0 in 0 W/m2
08:02 59.5 °F 56.8 °F 30.3 in NNW 4.5 mph 6.9 mph 91% 0 in 0 W/m2
08:07 59.5 °F 56.8 °F 30.3 in NNW 2.2 mph 6.9 mph 91% 0 in 0 W/m2
08:26 59.2 °F 56.8 °F 30.3 in NNW 1.6 mph 4.5 mph 92% 0 in 0 W/m2
08:31 59.2 °F 57.2 °F 30.3 in NNW 1.6 mph 4.5 mph 93% 0 in 0 W/m2
08:46 59 °F 57 °F 30.3 in North 1.6 mph 4.5 mph 93% 0 in 0 W/m2
09:01 58.6 °F 56.8 °F 30.3 in Calm   3.1 mph 94% 0 in 0 W/m2
09:11 58.3 °F 56.7 °F 30.3 in Calm   2.2 mph 94% 0 in 0 W/m2
09:16 57.9 °F 56.1 °F 30.3 in Calm   1.6 mph 94% 0 in 0 W/m2
09:21 57.9 °F 56.5 °F 30.3 in Calm   0.7 mph 95% 0 in 0 W/m2
09:26 57.9 °F 56.5 °F 30.3 in Calm   1.6 mph 95% 0 in 0 W/m2
09:31 57.9 °F 56.5 °F 30.3 in NNW 1.6 mph 2.2 mph 95% 0 in 0 W/m2
09:42 57.7 °F 56.7 °F 30.3 in Calm   3.1 mph 96% 0 in 0 W/m2
09:47 57.6 °F 56.5 °F 30.3 in Calm   2.2 mph 96% 0 in 0 W/m2
09:52 57.2 °F 56.1 °F 30.3 in Calm   0.7 mph 96% 0 in 0 W/m2
09:57 57 °F 56.1 °F 30.3 in Calm     97% 0 in 0 W/m2
10:02 57 °F 56.1 °F 30.3 in Calm     97% 0 in 0 W/m2
10:12 56.7 °F 55.8 °F 30.3 in Calm     97% 0 in 0 W/m2
10:17 56.7 °F 55.8 °F 30.3 in Calm     97% 0 in 0 W/m2
10:37 56.3 °F 55.8 °F 30.3 in NNW 0.7 mph 1.6 mph 98% 0 in 0 W/m2
10:42 56.3 °F 55.8 °F 30.3 in Calm   1.6 mph 98% 0 in 0 W/m2
10:47 56.1 °F 55.9 °F 30.3 in NNW 0.7 mph 2.2 mph 99% 0 in 0 W/m2
10:57 55.9 °F 55.8 °F 30.3 in Calm   2.2 mph 99% 0 in 0 W/m2
11:02 55.9 °F 55.8 °F 30.3 in NNW 0.7 mph 2.2 mph 99% 0 in 0 W/m2
11:12 55.8 °F 55.6 °F 30.3 in Calm   2.2 mph 99% 0 in 0 W/m2
11:17 55.6 °F 55.2 °F 30.3 in NNW 0.7 mph 3.1 mph 99% 0 in 0 W/m2
11:22 55.8 °F 55.6 °F 30.3 in NNW 2.2 mph 3.1 mph 99% 0 in 0 W/m2
11:37 55.9 °F 55.8 °F 30.3 in NW 3.8 mph 6 mph 99% 0 in 0 W/m2
11:47 56.1 °F 55.9 °F 30.3 in NNW 3.8 mph 7.6 mph 99% 0 in 5 W/m2
12:02 56.1 °F 55.9 °F 30.3 in NNW 3.8 mph 8.3 mph 99% 0 in 17 W/m2
12:12 56.1 °F 55.9 °F 30.3 in NNW 2.2 mph 6.9 mph 99% 0 in 24 W/m2
12:18 56.3 °F 55.9 °F 30.3 in NNW 2.2 mph 7.6 mph 99% 0 in 32 W/m2
12:23 56.5 °F 56.1 °F 30.3 in NNW 3.8 mph 7.6 mph 99% 0 in 60 W/m2
12:28 57.6 °F 57.4 °F 30.3 in NNW 3.1 mph 8.3 mph 99% 0 in 67 W/m2
12:33 58.3 °F 57.7 °F 30.3 in NNW 3.8 mph 8.3 mph 98% 0 in 73 W/m2
12:38 58.8 °F 57.7 °F 30.3 in NNW 3.8 mph 7.6 mph 96% 0 in 79 W/m2
12:48 60.4 °F 57.7 °F 30.3 in NNW 2.2 mph 6.9 mph 91% 0 in 92 W/m2
12:53 61 °F 57.4 °F 30.3 in North 4.5 mph 7.6 mph 88% 0 in 98 W/m2
13:03 61.7 °F 57.2 °F 30.3 in NNW 2.2 mph 8.3 mph 85% 0 in 118 W/m2
13:13 62.2 °F 57.7 °F 30.3 in NNW 2.2 mph 7.6 mph 85% 0 in 141 W/m2
13:18 62.8 °F 57.6 °F 30.3 in NNW 3.1 mph 6 mph 83% 0 in 153 W/m2
13:23 63 °F 57.4 °F 30.3 in North 5.4 mph 7.6 mph 82% 0 in 167 W/m2
13:33 64 °F 58.1 °F 30.3 in North 3.1 mph 7.6 mph 81% 0 in 188 W/m2
13:38 64.4 °F 58.1 °F 30.3 in North 2.2 mph 6 mph 80% 0 in 201 W/m2
13:48 64.9 °F 57.9 °F 30.3 in NNW 3.1 mph 7.6 mph 78% 0 in 226 W/m2
13:58 66 °F 58.6 °F 30.3 in NNW 2.2 mph 7.6 mph 77% 0 in 249 W/m2
14:03 66.6 °F 58.8 °F 30.3 in NNE 2.2 mph 7.6 mph 76% 0 in 262 W/m2
14:08 66.9 °F 58.8 °F 30.3 in NNE 3.8 mph 6.9 mph 75% 0 in 277 W/m2
14:18 67.8 °F 59.4 °F 30.3 in North 2.2 mph 7.6 mph 74% 0 in 304 W/m2
14:28 68.2 °F 57.9 °F 30.3 in NNE 3.8 mph 8.3 mph 70% 0 in 330 W/m2
14:33 68.4 °F 58.3 °F 30.3 in North 4.5 mph 8.3 mph 70% 0 in 345 W/m2
14:43 69.4 °F 59.7 °F 30.3 in North 3.8 mph 7.6 mph 71% 0 in 375 W/m2
14:48 69.6 °F 59 °F 30.3 in North 3.1 mph 6.9 mph 69% 0 in 389 W/m2
14:58 71.4 °F 59.9 °F 30.3 in North 3.1 mph 6 mph 67% 0 in 421 W/m2
15:03 71.4 °F 58.6 °F 30.3 in NNW 2.2 mph 5.4 mph 64% 0 in 436 W/m2
15:08 70.9 °F 58.1 °F 30.3 in NNW 1.6 mph 5.4 mph 64% 0 in 452 W/m2
15:13 72 °F 59.2 °F 30.3 in North 2.2 mph 5.4 mph 64% 0 in 468 W/m2
15:18 72.5 °F 58.8 °F 30.3 in Calm   6.9 mph 62% 0 in 486 W/m2
15:23 72.7 °F 58.8 °F 30.3 in NW 0.7 mph 6.9 mph 62% 0 in 505 W/m2
15:28 73.6 °F 59.4 °F 30.3 in North 1.6 mph 6 mph 61% 0 in 522 W/m2
15:44 73.9 °F 58.6 °F 30.3 in NNE 3.8 mph 7.6 mph 59% 0 in 577 W/m2
15:49 74.3 °F 59.2 °F 30.3 in Calm   7.6 mph 59% 0 in 603 W/m2
15:54 75.6 °F 58.8 °F 30.3 in Calm   6 mph 56% 0 in 630 W/m2
15:59 76.5 °F 60.1 °F 30.3 in NW 2.2 mph 4.5 mph 57% 0 in 656 W/m2
16:04 75.7 °F 58.5 °F 30.3 in Calm   6 mph 55% 0 in 670 W/m2
16:09 77.5 °F 59.5 °F 30.3 in WSW 0.7 mph 6 mph 54% 0 in 696 W/m2
16:19 77.7 °F 59.4 °F 30.3 in North 1.6 mph 3.8 mph 53% 0 in 726 W/m2
16:29 76.6 °F 58.3 °F 30.3 in East 0.7 mph 5.4 mph 53% 0 in 741 W/m2
16:34 76.6 °F 58.3 °F 30.3 in ESE 0.7 mph 5.4 mph 53% 0 in 748 W/m2
16:44 73.6 °F 61.5 °F 30.3 in South 4.5 mph 8.3 mph 66% 0 in 752 W/m2
16:49 73.4 °F 61.9 °F 30.3 in SSE 3.8 mph 8.3 mph 67% 0 in 762 W/m2
16:54 72.9 °F 61 °F 30.3 in SSE 6 mph 8.3 mph 66% 0 in 770 W/m2
16:59 72.1 °F 60.6 °F 30.3 in South 6.9 mph 9.2 mph 67% 0 in 775 W/m2
17:15 72 °F 59.5 °F 30.3 in SSE 5.4 mph 9.8 mph 65% 0 in 796 W/m2
17:20 72.5 °F 61 °F 30.3 in SSE 3.8 mph 9.2 mph 67% 0 in 805 W/m2
17:30 72.9 °F 60.1 °F 30.3 in SSE 5.4 mph 9.8 mph 64% 0 in 815 W/m2
17:40 73.9 °F 59.2 °F 30.3 in SSE 5.4 mph 7.6 mph 60% 0 in 829 W/m2
17:45 74.1 °F 60.8 °F 30.3 in South 3.8 mph 7.6 mph 63% 0 in 835 W/m2
17:50 75 °F 61.2 °F 30.3 in South 4.5 mph 6.9 mph 62% 0 in 840 W/m2
17:55 75.6 °F 61.2 °F 30.3 in SE 3.8 mph 7.6 mph 61% 0 in 843 W/m2
18:00 75.7 °F 60.4 °F 30.3 in ESE 3.1 mph 7.6 mph 59% 0 in 846 W/m2
18:01 75.7 °F 59.9 °F 30.3 in SE 3.8 mph 8.3 mph 58% 0 in 847 W/m2
18:06 75.7 °F 59.9 °F 30.3 in East 3.1 mph 9.2 mph 58% 0 in 845 W/m2
18:21 74.8 °F 59.5 °F 30.3 in South 0.7 mph 9.8 mph 59% 0 in 840 W/m2
18:26 75.6 °F 59.7 °F 30.3 in SE 2.2 mph 9.8 mph 58% 0 in 845 W/m2
18:31 75.6 °F 59.4 °F 30.2 in SE 2.2 mph 9.8 mph 57% 0 in 845 W/m2
18:36 75.2 °F 59.4 °F 30.2 in SE 3.8 mph 10.7 mph 58% 0 in 843 W/m2
18:41 75.4 °F 60.1 °F 30.2 in SE 3.8 mph 10.7 mph 59% 0 in 840 W/m2
18:46 75.2 °F 59.4 °F 30.2 in SE 6 mph 8.3 mph 58% 0 in 839 W/m2
18:51 75.2 °F 59 °F 30.2 in SSE 2.2 mph 10.7 mph 57% 0 in 835 W/m2
19:19 76.6 °F 60.3 °F 30.2 in SSE 4.5 mph 9.8 mph 57% 0 in 821 W/m2
19:29 76.6 °F 59.7 °F 30.2 in SSE 1.6 mph 7.6 mph 56% 0 in 808 W/m2
19:45 77.9 °F 59.4 °F 30.2 in SE 4.5 mph 9.2 mph 53% 0 in 794 W/m2
19:50 77.5 °F 59.2 °F 30.2 in SE 3.1 mph 9.2 mph 53% 0 in 790 W/m2
19:55 77.7 °F 58.6 °F 30.2 in SE 2.2 mph 9.2 mph 52% 0 in 783 W/m2
20:00 77.7 °F 59.4 °F 30.2 in SE 3.1 mph 8.3 mph 53% 0 in 776 W/m2
20:05 78.1 °F 59.5 °F 30.2 in SE 2.2 mph 10.7 mph 53% 0 in 773 W/m2
20:10 78.1 °F 59.5 °F 30.2 in SE 2.2 mph 10.7 mph 53% 0 in 767 W/m2
20:15 78.1 °F 58.5 °F 30.2 in ESE 8.3 mph 10.7 mph 51% 0 in 757 W/m2
20:25 78.4 °F 60.4 °F 30.2 in ESE 4.5 mph 10.7 mph 54% 0 in 750 W/m2
20:30 78.6 °F 60.6 °F 30.2 in ESE 3.8 mph 9.8 mph 54% 0 in 738 W/m2
20:35 79.2 °F 59.5 °F 30.2 in ESE 2.2 mph 9.8 mph 51% 0 in 727 W/m2
20:40 79.2 °F 60.1 °F 30.2 in SE 3.1 mph 8.3 mph 52% 0 in 722 W/m2
20:45 78.6 °F 60.6 °F 30.2 in SSE 3.8 mph 9.2 mph 54% 0 in 710 W/m2
20:50 79.5 °F 61 °F 30.2 in SSE 3.8 mph 9.2 mph 53% 0 in 708 W/m2
20:55 79.9 °F 60.6 °F 30.2 in SE 3.8 mph 9.8 mph 52% 0 in 699 W/m2
21:00 79.7 °F 60.6 °F 30.2 in SE 2.2 mph 9.8 mph 52% 0 in 689 W/m2
21:05 79.2 °F 60.6 °F 30.2 in ESE 4.5 mph 9.8 mph 53% 0 in 678 W/m2
21:10 78.8 °F 60.3 °F 30.2 in ESE 3.1 mph 9.2 mph 53% 0 in 664 W/m2
21:26 78.4 °F 60.4 °F 30.2 in SE 6 mph 11.4 mph 54% 0 in 639 W/m2
21:31 78.6 °F 61.2 °F 30.2 in ESE 4.5 mph 11.4 mph 55% 0 in 625 W/m2
21:41 79.2 °F 61.2 °F 30.2 in ESE 3.1 mph 14.5 mph 54% 0 in 604 W/m2
21:46 79.7 °F 61.2 °F 30.2 in ESE 4.5 mph 14.5 mph 53% 0 in 586 W/m2
21:51 79.3 °F 60.8 °F 30.2 in ESE 4.5 mph 11.4 mph 53% 0 in 586 W/m2
21:56 79.5 °F 61 °F 30.2 in ESE 3.8 mph 11.4 mph 53% 0 in 572 W/m2
22:01 79.9 °F 60.3 °F 30.2 in ESE 3.1 mph 11.4 mph 51% 0 in 568 W/m2
22:06 80.4 °F 61.2 °F 30.2 in SE 3.8 mph 10.7 mph 52% 0 in 557 W/m2
22:12 79.9 °F 60.6 °F 30.2 in SE 2.2 mph 10.7 mph 52% 0 in 543 W/m2
22:30 80.1 °F 61 °F 30.1 in SE 3.8 mph 9.8 mph 52% 0 in 498 W/m2
22:33 80.2 °F 61.2 °F 30.1 in SE 2.2 mph 9.8 mph 52% 0 in 492 W/m2
22:43 81 °F 61.2 °F 30.1 in SSE 3.8 mph 9.8 mph 51% 0 in 466 W/m2
22:45 80.8 °F 61 °F 30.1 in SE 3.8 mph 9.8 mph 51% 0 in 462 W/m2
22:50 79.9 °F 60.6 °F 30.1 in SSE 5.4 mph 9.8 mph 52% 0 in 451 W/m2
22:55 79.5 °F 60.4 °F 30.1 in SE 3.8 mph 9.8 mph 52% 0 in 436 W/m2
23:00 79.5 °F 60.4 °F 30.1 in ESE 1.6 mph 9.8 mph 52% 0 in 421 W/m2
23:11 79.9 °F 60.6 °F 30.1 in SE 1.6 mph 9.8 mph 52% 0 in 397 W/m2
23:16 80.4 °F 61.2 °F 30.1 in ESE 3.1 mph 9.8 mph 52% 0 in 386 W/m2
23:26 80.8 °F 61 °F 30.1 in ESE 4.5 mph 8.3 mph 51% 0 in 360 W/m2
23:31 80.1 °F 61.3 °F 30.1 in ESE 3.1 mph 10.7 mph 53% 0 in 347 W/m2
23:36 80.8 °F 61 °F 30.1 in ESE 2.2 mph 10.7 mph 51% 0 in 335 W/m2
23:41 80.8 °F 61 °F 30.1 in ESE 1.6 mph 7.6 mph 51% 0 in 321 W/m2
23:47 80.8 °F 61 °F 30.1 in ESE 2.2 mph 7.6 mph 51% 0 in 306 W/m2
23:52 79.9 °F 60.6 °F 30.1 in ESE 4.5 mph 9.2 mph 52% 0 in 294 W/m2
Northern Hawkes Bay. New Zealand Historic Data
Compliments of Weather Underground - 2 mb